Location: ?????oe
(44.4874°N, 135.7046°E)
Time: 22:20:50
(UTC+00:00)

Cosmos 2058 Rocket - Pass Details

Date: 13 December 2025
Orbit: 603 x 633 km, 82.5° (Epoch: 21 January)

Event Time Altitude Azimuth Distance (km) Brightness Sun altitude
Exits shadow 20:23:06 54° 306° (NW) 752 3.1 -21.0°
Maximum altitude 20:23:44 62° 265° (W) 699 3.0 -20.8°
Drops below altitude 10° 20:28:02 10° 185° (S) 1,966 5.7 -20.1°
Sets 20:30:15 0° 182° (S) 2,861 6.6 -19.7°
